Big Rapids, MI

7:45 AM EDT on August 23, 2019 (GMT -0400)
Roben-Hood

Weather History for KRQB - July, 2019

Change the Weather History Date:

Monday, July 22, 2019

  Actual Average Record
Temperature  
Mean Temperature 66 °F -  
Max Temperature 75 °F 82 °F 93 °F (1972)
Min Temperature 57 °F 57 °F 43 °F (1981)
Cooling Degree Days 2    
Growing Degree Days 16 (Base 50)    
Moisture  
Dew Point 50 °F    
Average Humidity 59    
Maximum Humidity 83    
Minimum Humidity 29    
Precipitation  
Precipitation 0.13 in - - ()
Sea Level Pressure  
Sea Level Pressure 30.03 in    
Wind  
Wind Speed 6 mph (NNW)    
Max Wind Speed 14 mph    
Max Gust Speed 21 mph    
Visibility 10 miles    
Events      
Averages and records for this station are not official NWS values.
T = Trace of Precipitation, MM = Missing Value Source: NWS Daily Summary

Daily Weather History Graph

Daily Weather History Graph

Search for Another Location

Airport or City:

Astronomy

Jul. 22, 2019 Rise Set
Actual Time 6:20 AM EDT 9:15 PM EDT
Civil Twilight 5:46 AM EDT 9:49 PM EDT
Nautical Twilight 5:03 AM EDT 10:32 PM EDT
Astronomical Twilight 4:12 AM EDT 11:23 PM EDT
Moon 12:03 AM EDT (7/22) 11:45 AM EDT (7/22)
Length of Visible Light 16h 03m
Length of Day
14h 55m
Waning Gibbous, 72% of the Moon is Illuminated
Jul 22
Waning Gibbous
Jul 24
Last Quarter
Jul 31
New
Aug 7
First Quarter
Aug 15
Full

Hourly Weather History & Observations

Time (EDT) Temp. Dew Point Humidity Pressure Visibility Wind Dir Wind Speed Gust Speed Precip Events Conditions
12:16 AM 65.3 °F 58.3 °F 78% 30.00 in 10.0 mi North 5.8 mph - N/A   Clear
12:35 AM 64.6 °F 58.5 °F 80% 30.00 in 10.0 mi North 3.5 mph - N/A   Clear
12:36 AM 64.6 °F 58.5 °F 80% 29.99 in 10.0 mi North 3.5 mph - N/A   Clear
12:55 AM 63.7 °F 58.3 °F 83% 30.00 in 10.0 mi North 5.8 mph - N/A   Clear
12:56 AM 63.7 °F 58.3 °F 83% 30.00 in 10.0 mi North 5.8 mph - N/A   Clear
1:19 AM 64.0 °F 57.2 °F 78% 30.01 in 10.0 mi North 4.6 mph - 0.01 in   Clear
1:37 AM 63.7 °F 56.3 °F 77% 30.01 in 10.0 mi North 5.8 mph - 0.01 in   Clear
1:55 AM 63.5 °F 55.0 °F 74% 30.01 in 10.0 mi North 4.6 mph - 0.01 in   Clear
2:15 AM 63.0 °F 54.5 °F 74% 30.01 in 10.0 mi NNW 3.5 mph - N/A   Clear
2:16 AM 63.0 °F 54.5 °F 74% 30.01 in 10.0 mi North 3.5 mph - N/A   Clear
2:35 AM 62.6 °F 53.8 °F 73% 30.00 in 10.0 mi North 3.5 mph - 0.01 in   Clear
2:58 AM 62.2 °F 53.6 °F 73% 30.01 in 10.0 mi Calm Calm - 0.01 in   Clear
3:16 AM 61.7 °F 53.2 °F 74% 30.00 in 10.0 mi Calm Calm - N/A   Clear
3:35 AM 61.0 °F 52.7 °F 74% 30.00 in 10.0 mi NW 3.5 mph - N/A   Clear
3:36 AM 61.0 °F 52.7 °F 74% 30.00 in 10.0 mi NW 3.5 mph - N/A   Clear
3:55 AM 60.8 °F 52.3 °F 74% 30.01 in 10.0 mi Calm Calm - N/A   Clear
4:00 AM 60.8 °F 52.5 °F 74% 30.01 in 10.0 mi Calm Calm - N/A   Clear
4:18 AM 60.3 °F 52.7 °F 76% 30.01 in 10.0 mi Calm Calm - N/A   Clear
4:36 AM 60.3 °F 52.7 °F 76% 30.00 in 10.0 mi NNW 3.5 mph - 0.01 in   Scattered Clouds
4:55 AM 60.1 °F 53.1 °F 78% 30.01 in 10.0 mi NNW 3.5 mph - 0.01 in   Mostly Cloudy
4:56 AM 60.1 °F 53.1 °F 78% 30.01 in 10.0 mi NNW 4.6 mph - 0.01 in   Mostly Cloudy
5:15 AM 60.3 °F 53.6 °F 79% 30.02 in 10.0 mi NNW 4.6 mph - N/A   Overcast
5:39 AM 59.2 °F 53.6 °F 82% 30.02 in 10.0 mi NNW 3.5 mph - N/A   Scattered Clouds
5:57 AM 59.2 °F 53.6 °F 82% 30.02 in 10.0 mi NW 6.9 mph - 0.01 in   Clear
6:16 AM 59.2 °F 53.6 °F 82% 30.01 in 10.0 mi NNW 4.6 mph - N/A   Scattered Clouds
6:35 AM 59.0 °F 53.6 °F 82% 30.01 in 10.0 mi Calm Calm - N/A   Clear
6:59 AM 59.0 °F 53.1 °F 81% 30.03 in 10.0 mi NNW 3.5 mph - N/A   Clear
7:17 AM 58.5 °F 53.1 °F 82% 30.01 in 10.0 mi Calm Calm - N/A   Clear
7:35 AM 58.6 °F 53.1 °F 82% 30.02 in 10.0 mi NNW 3.5 mph - N/A   Clear
7:36 AM 58.8 °F 53.1 °F 81% 30.02 in 10.0 mi NNW 3.5 mph - N/A   Clear
7:55 AM 59.2 °F 52.0 °F 77% 30.03 in 10.0 mi NNW 4.6 mph - 0.01 in   Clear
8:15 AM 59.4 °F 51.8 °F 76% 30.03 in 10.0 mi NNW 4.6 mph - N/A   Clear
8:20 AM 59.4 °F 51.8 °F 76% 30.03 in 10.0 mi NNW 6.9 mph - N/A   Clear
8:38 AM 59.9 °F 52.3 °F 76% 30.04 in 10.0 mi NNW 4.6 mph - N/A   Clear
8:55 AM 60.6 °F 52.5 °F 75% 30.04 in 10.0 mi NNW 4.6 mph - N/A   Clear
9:16 AM 62.2 °F 52.2 °F 70% 30.04 in 10.0 mi NNW 6.9 mph - N/A   Clear
9:35 AM 61.7 °F 52.5 °F 72% 30.05 in 10.0 mi NNW 5.8 mph - 0.01 in   Clear
9:58 AM 63.9 °F 52.9 °F 67% 30.04 in 10.0 mi NNW 9.2 mph - 0.01 in   Clear
10:16 AM 65.1 °F 53.1 °F 65% 30.04 in 10.0 mi NNW 6.9 mph - N/A   Clear
10:35 AM 66.4 °F 53.2 °F 63% 30.03 in 10.0 mi North 9.2 mph - N/A   Clear
10:36 AM 66.4 °F 53.2 °F 63% 30.03 in 10.0 mi NNE 8.1 mph - N/A   Clear
10:55 AM 68.4 °F 54.9 °F 62% 30.03 in 10.0 mi North 9.2 mph 17.3 mph N/A   Clear
11:18 AM 69.4 °F 53.8 °F 57% 30.03 in 10.0 mi North 11.5 mph 18.4 mph N/A   Clear
11:36 AM 69.8 °F 53.2 °F 56% 30.03 in 10.0 mi North 11.5 mph 18.4 mph 0.01 in   Clear
11:55 AM 72.0 °F 53.4 °F 52% 30.02 in 10.0 mi North 10.4 mph 16.1 mph 0.01 in   Scattered Clouds
11:56 AM 72.1 °F 53.1 °F 51% 30.02 in 10.0 mi North 11.5 mph 16.1 mph 0.01 in   Scattered Clouds
12:15 PM 72.7 °F 51.4 °F 47% 30.03 in 10.0 mi North 9.2 mph 18.4 mph N/A   Scattered Clouds
12:38 PM 72.7 °F 50.9 °F 46% 30.03 in 10.0 mi NNE 8.1 mph 17.3 mph N/A   Scattered Clouds
12:57 PM 73.0 °F 51.3 °F 46% 30.02 in 10.0 mi North 12.7 mph - 0.01 in   Scattered Clouds
1:15 PM 72.5 °F 50.4 °F 46% 30.02 in 10.0 mi NNE 8.1 mph - N/A   Mostly Cloudy
1:16 PM 72.5 °F 50.5 °F 46% 30.02 in 10.0 mi NNE 8.1 mph - N/A   Mostly Cloudy
1:35 PM 73.4 °F 50.5 °F 45% 30.02 in 10.0 mi NNE 6.9 mph - N/A   Mostly Cloudy
1:55 PM 73.8 °F 50.4 °F 44% 30.02 in 10.0 mi NNE 9.2 mph 18.4 mph N/A   Scattered Clouds
2:00 PM 73.9 °F 50.2 °F 43% 30.02 in 10.0 mi North 12.7 mph 18.4 mph N/A   Scattered Clouds
2:18 PM 73.0 °F 49.3 °F 43% 30.02 in 10.0 mi NNE 8.1 mph 17.3 mph N/A   Scattered Clouds
2:36 PM 74.3 °F 48.2 °F 40% 30.02 in 10.0 mi NNE 6.9 mph - N/A   Scattered Clouds
2:55 PM 73.9 °F 48.2 °F 40% 30.02 in 10.0 mi North 9.2 mph - 0.01 in   Scattered Clouds
3:15 PM 74.8 °F 47.1 °F 37% 30.02 in 10.0 mi North 11.5 mph 17.3 mph N/A   Scattered Clouds
3:16 PM 74.7 °F 46.6 °F 37% 30.02 in 10.0 mi North 11.5 mph 17.3 mph N/A   Scattered Clouds
3:39 PM 75.2 °F 44.1 °F 33% 30.02 in 10.0 mi NNE 6.9 mph 19.6 mph N/A   Clear
3:57 PM 74.8 °F 42.4 °F 31% 30.02 in 10.0 mi North 9.2 mph - N/A   Clear
4:15 PM 75.6 °F 41.7 °F 30% 30.02 in 10.0 mi North 8.1 mph 16.1 mph N/A   Clear
4:16 PM 75.6 °F 41.4 °F 29% 30.02 in 10.0 mi North 8.1 mph 16.1 mph N/A   Clear
4:35 PM 75.2 °F 41.4 °F 30% 30.02 in 10.0 mi North 10.4 mph 17.3 mph 0.01 in   Clear
4:55 PM 75.0 °F 42.1 °F 31% 30.02 in 10.0 mi North 9.2 mph 16.1 mph 0.01 in   Clear
5:18 PM 74.5 °F 39.9 °F 29% 30.02 in 10.0 mi NNE 8.1 mph 18.4 mph N/A   Clear
5:36 PM 74.8 °F 41.7 °F 30% 30.02 in 10.0 mi NNE 9.2 mph 16.1 mph N/A   Clear
5:55 PM 74.5 °F 44.1 °F 34% 30.02 in 10.0 mi North 9.2 mph - N/A   Clear
5:56 PM 74.5 °F 44.1 °F 34% 30.02 in 10.0 mi North 8.1 mph - N/A   Clear
6:15 PM 74.5 °F 45.7 °F 36% 30.02 in 10.0 mi North 6.9 mph 16.1 mph N/A   Scattered Clouds
6:39 PM 73.4 °F 38.8 °F 29% 30.03 in 10.0 mi NNE 8.1 mph 20.7 mph N/A   Clear
6:57 PM 73.4 °F 41.0 °F 31% 30.03 in 10.0 mi North 13.8 mph 18.4 mph 0.01 in   Clear
7:15 PM 73.6 °F 42.3 °F 32% 30.03 in 10.0 mi North 8.1 mph - N/A   Clear
7:16 PM 73.6 °F 42.4 °F 33% 30.03 in 10.0 mi North 9.2 mph - N/A   Clear
7:35 PM 72.9 °F 44.6 °F 36% 30.03 in 10.0 mi North 11.5 mph - N/A   Clear
7:55 PM 71.6 °F 46.6 °F 41% 30.04 in 10.0 mi North 9.2 mph - N/A   Clear
8:00 PM 71.6 °F 46.6 °F 41% 30.04 in 10.0 mi NNW 9.2 mph - N/A   Clear
8:18 PM 70.5 °F 45.3 °F 40% 30.04 in 10.0 mi NW 9.2 mph - N/A   Clear
8:35 PM 70.0 °F 44.4 °F 40% 30.05 in 10.0 mi NW 10.4 mph - N/A   Clear
8:55 PM 68.5 °F 44.2 °F 42% 30.05 in 10.0 mi WNW 10.4 mph - 0.01 in   Clear
8:56 PM 68.5 °F 44.1 °F 41% 30.05 in 10.0 mi WNW 10.4 mph - 0.01 in   Clear
9:19 PM 66.4 °F 46.4 °F 49% 30.04 in 10.0 mi WNW 5.8 mph - N/A   Clear
9:37 PM 65.3 °F 48.9 °F 55% 30.04 in 10.0 mi WNW 4.6 mph - N/A   Clear
9:55 PM 63.0 °F 50.2 °F 63% 30.05 in 10.0 mi WNW 5.8 mph - N/A   Clear
9:56 PM 63.0 °F 50.2 °F 63% 30.05 in 10.0 mi WNW 5.8 mph - N/A   Clear
10:15 PM 63.5 °F 49.5 °F 60% 30.05 in 10.0 mi WNW 4.6 mph - N/A   Clear
10:16 PM 63.3 °F 49.6 °F 61% 30.05 in 10.0 mi WNW 4.6 mph - N/A   Clear
10:38 PM 62.8 °F 49.6 °F 62% 30.06 in 10.0 mi WNW 4.6 mph - N/A   Clear
10:56 PM 61.9 °F 49.8 °F 65% 30.06 in 10.0 mi NW 3.5 mph - N/A   Clear
11:15 PM 61.3 °F 49.6 °F 65% 30.06 in 10.0 mi WNW 3.5 mph - N/A   Clear
11:16 PM 61.3 °F 49.6 °F 65% 30.06 in 10.0 mi WNW 3.5 mph - N/A   Clear
11:35 PM 59.2 °F 51.8 °F 77% 30.06 in 10.0 mi Calm Calm - N/A   Clear
11:59 PM 57.9 °F 52.5 °F 82% 30.06 in 10.0 mi Calm Calm - 0.01 in   Clear